Terminal Aerodrome Forecast
Issued by NWS Mt. Holly, NJ

Home | Current Version | Previous Version | Text Only | Print | Product List | Glossary On
Versions: 1 2 3 4 5 6 7 8 9 10 11 12 13 14 15 16 17 18
000
FTAK31 PANC 022332
TAFABE
TAF
PABE 022332Z 0300/0324 VRB05KT P6SM SCT025 BKN120
     FM031200 VRB04KT P6SM VCFG FEW005 BKN120
     FM032000 17007KT P6SM SCT050 BKN080=

USA.gov is the U.S. government's official web portal to all federal, state and local government web resources and services.